Tracking 20724 objects as of 2-Jun-2020
HD Live streaming from Space Station
objects crossing your sky now

COSMOS 1627

Track COSMOS 1627 now!
10-day predictions
COSMOS 1627 is classified as:


NORAD ID: 15505
Int'l Code: 1985-011A
Perigee: 959.9 km
Apogee: 1,022.3 km
Inclination: 82.9 °
Period: 104.8 minutes
Semi major axis: 7362 km
RCS: 3.2863 m2 (large)
Launch date: February 1, 1985
Source: Commonwealth of Independent States (former USSR) (CIS)
Launch site: PLESETSK MISSILE AND SPACE COMPLEX (PKMTR)
aabbcc
Your satellite tracking list
Your tracking list is empty




NASA's NSSDC Master Catalog

Two Line Element Set (TLE):
1 15505U 85011A   20154.48372653 +.00000015 +00000-0 +26503-7 0  9990
2 15505 082.9227 244.5931 0042327 015.0162 356.4332 13.74360491772256
Source of the keplerian elements: AFSPC